Flag for Germany Weather past 2 weeks in Aurich, Lower Saxony, Germany

Now
59 °F

Fog.


Feels Like: 59 °F
Forecast: 62 / 75 °F
Wind: No wind

Location: Wittmundhaven

Current Time: Jul 28, 2014 at 7:15:57 AM

Latest Report: Jul 28, 2014 at 6:52 AM


Visibility: 1 mi

Pressure: 29.98 "Hg

Humidity: 100%

Dew point: 59 °F

Location of AurichLocation

Historic Weather in Aurich — Graph

°F

Aurich temperature yesterday

Maximum temperature yesterday: 73 °F (at 11:20 AM)
Minimum temperature yesterday: 63 °F (at 5:20 AM)
Average temperature yesterday: 68 °F

Past Weeks' High & Low Weather Summary

 TemperatureHumidityPressure
High91 °F (Jul 19, 2:20 PM)100% (Jul 15, 4:20 AM)30.18 "Hg (Jul 15, 4:20 AM)
Low54 °F (Jul 15, 4:20 AM)32% (Jul 19, 5:20 PM)29.68 "Hg (Jul 13, 3:20 PM)
Average69 °F75%29.99 "Hg
* Reported Jul 13 5:20 AM — Jul 28 5:20 AM, Aurich, Weather by CustomWeather, © 2014

Note: Actual official high and low records may vary slightly from our data, if they occured in-between our weather recording intervals... More about our weather records

Advertising

Aurich weather history for previous 24 hours

 ConditionsComfort  
Time TempWeatherWind HumidityBarometerVisibility
5:20 AM
Jul 28
57 °FFog.3 mph94%29.98 "Hg0 mi
4:20 AM57 °FFog.2 mph100%29.98 "Hg1 mi
3:20 AM59 °FFog.1 mph100%29.98 "Hg3 mi
2:20 AM61 °FFog.3 mph94%29.98 "Hg4 mi
1:20 AM63 °FFog.3 mph94%29.98 "HgN/A
12:20 AM63 °FFog.1 mph94%29.98 "HgN/A
11:48 PM
Jul 27
64 °FPartly cloudy.2 mph94%29.98 "HgN/A
11:20 PM64 °FPassing clouds.2 mph94%30.01 "HgN/A
10:20 PM64 °FScattered clouds.3 mph94%30.01 "HgN/A
9:20 PM68 °FBroken clouds.6 mph83%29.98 "HgN/A
8:20 PM70 °FPartly sunny.7 mph83%29.98 "HgN/A
7:20 PM70 °FBroken clouds.10 mph83%29.98 "HgN/A
6:20 PM73 °FBroken clouds.9 mph69%29.95 "HgN/A
5:20 PM73 °FBroken clouds.10 mph69%29.95 "HgN/A
4:20 PM73 °FBroken clouds.9 mph78%29.95 "HgN/A
3:20 PM72 °FPartly sunny.7 mph78%29.95 "HgN/A
2:20 PM70 °FBroken clouds.6 mph88%29.95 "Hg6 mi
1:20 PM66 °FLight rain. Fog.5 mph94%29.95 "Hg3 mi
12:20 PM70 °FThunderstorms. Fog.14 mph78%29.95 "Hg3 mi
11:20 AM73 °FScattered clouds.8 mph74%29.95 "Hg3 mi
10:20 AM72 °FScattered clouds.6 mph78%29.95 "Hg3 mi
9:20 AM70 °FFog.5 mph83%29.95 "Hg3 mi
8:20 AM68 °FFog.5 mph88%29.95 "Hg3 mi
7:20 AM66 °FFog.2 mph88%29.92 "Hg4 mi
Weather by CustomWeather, © 2014

See weather overviewHow to use our weather pages